Weather History for Cedar City, UT

Change the Weather History Date:

Monday, April 22, 2013

  Actual Average Record
Temperature  
Mean Temperature 56 °F 48 °F  
Max Temperature 72 °F 63 °F 84 °F (2012)
Min Temperature 39 °F 33 °F 22 °F (1963)
Degree Days  
Heating Degree Days 9 17  
Month to date heating degree days 446 431  
Since 1 July heating degree days 5726 5765  
Cooling Degree Days 0 0  
Month to date cooling degree days 0 0  
Year to date cooling degree days 0 0  
Growing Degree Days 5 (Base 50)    
Moisture  
Dew Point 23 °F    
Average Humidity 31    
Maximum Humidity 49    
Minimum Humidity 13    
Precipitation  
Precipitation 0.00 in 0.03 in 0.58 in (1957)
Month to date precipitation 0.91 0.82  
Year to date precipitation 3.72 4.03  
Sea Level Pressure  
Sea Level Pressure 29.86 in    
Wind  
Wind Speed 7 mph (NNW)    
Max Wind Speed 25 mph    
Max Gust Speed 33 mph    
Visibility 10 miles    
Events      
T = Trace of Precipitation, MM = Missing Value Source: NWS Daily Summary

Daily Weather History Graph

Daily Weather History Graph

Search for Another Location

Airport:

Trip Planner

Search our weather history database for the weather conditions in past years. The results will help you decide how hot, cold, wet, or windy it might be!

Date:

Astronomy

Apr. 22, 2013 Rise Set
Actual Time 6:47 AM MDT 8:14 PM MDT
Civil Twilight 6:19 AM MDT 8:42 PM MDT
Nautical Twilight 5:46 AM MDT 9:15 PM MDT
Astronomical Twilight 5:12 AM MDT 9:50 PM MDT
Moon 5:10 PM MDT (4/22) 4:40 AM MDT (4/22)
Length of Visible Light 14h 22m
Length of Day
13h 27m
Waxing Gibbous, 88% of the Moon is Illuminated
Apr 22
Waxing Gibbous
Apr 25
Full
May 2
Last Quarter
May 9
New
May 17
First Quarter

Hourly Weather History & Observations

Time (MDT) Temp. Windchill Dew Point Humidity Pressure Visibility Wind Dir Wind Speed Gust Speed Precip Events Conditions
12:53 AM 50.0 °F - 21.0 °F 32% 29.87 in 10.0 mi SSW 5.8 mph - N/A   Clear
1:53 AM 48.0 °F - 21.9 °F 36% 29.90 in 10.0 mi NNE 8.1 mph - N/A   Clear
2:53 AM 51.1 °F - 21.0 °F 31% 29.88 in 10.0 mi SE 8.1 mph - N/A   Clear
3:53 AM 44.1 °F 41.5 °F 24.1 °F 45% 29.89 in 10.0 mi SE 4.6 mph - N/A   Clear
4:53 AM 44.1 °F 40.8 °F 24.1 °F 45% 29.89 in 10.0 mi SE 5.8 mph - N/A   Clear
5:53 AM 43.0 °F 41.3 °F 24.1 °F 47% 29.89 in 10.0 mi ESE 3.5 mph - N/A   Clear
6:53 AM 39.9 °F 37.8 °F 25.0 °F 55% 29.92 in 10.0 mi SE 3.5 mph - N/A   Clear
7:53 AM 46.9 °F - 26.1 °F 44% 29.91 in 10.0 mi SSE 5.8 mph - N/A   Clear
8:53 AM 52.0 °F - 26.1 °F 37% 29.93 in 10.0 mi Calm Calm - N/A   Clear
10:53 AM 62.1 °F - 21.9 °F 21% 29.91 in 10.0 mi Calm Calm - N/A   Clear
11:53 AM 64.9 °F - 21.9 °F 19% 29.88 in 10.0 mi NNW 8.1 mph - N/A   Clear
12:53 PM 68.0 °F - 25.0 °F 20% 29.84 in 10.0 mi NW 12.7 mph 16.1 mph N/A   Clear
1:53 PM 70.0 °F - 21.0 °F 16% 29.81 in 10.0 mi West 11.5 mph 27.6 mph N/A   Clear
2:53 PM 70.0 °F - 21.0 °F 16% 29.77 in 10.0 mi West 15.0 mph 23.0 mph N/A   Clear
3:53 PM 71.1 °F - 19.0 °F 14% 29.77 in 10.0 mi West 20.7 mph 26.5 mph N/A   Clear
4:53 PM 71.1 °F - 21.9 °F 16% 29.73 in 10.0 mi West 15.0 mph 24.2 mph N/A   Clear
5:53 PM 70.0 °F - 21.0 °F 16% 29.73 in 10.0 mi WNW 17.3 mph 24.2 mph N/A   Clear
6:53 PM 68.0 °F - 19.0 °F 15% 29.74 in 10.0 mi NW 17.3 mph 29.9 mph N/A   Clear
7:13 PM 60.8 °F - 28.4 °F 29% 29.88 in 10.0 mi North 13.8 mph 23.0 mph N/A   Clear
7:53 PM 57.0 °F - 28.0 °F 33% 29.78 in 10.0 mi NNE 11.5 mph 21.9 mph N/A   Clear
8:53 PM 50.0 °F - 26.1 °F 39% 29.85 in 10.0 mi North 15.0 mph - N/A   Clear
9:53 PM 46.9 °F - 24.1 °F 41% 29.90 in 10.0 mi North 16.1 mph 24.2 mph N/A   Mostly Cloudy
10:53 PM 44.1 °F 38.6 °F 21.0 °F 40% 29.94 in 10.0 mi NNE 10.4 mph 19.6 mph N/A   Clear
11:53 PM 37.0 °F 31.0 °F 19.9 °F 50% 29.98 in 10.0 mi North 8.1 mph 17.3 mph N/A   Clear